COSMOS 2520 (42907 NORAD) Tracking and Keplerian Element Data

This shows tracking and keplerian element data for the satellite.

Feedback or suggestion? Click here.




ElementValue
Catalog42907
NameCOSMOS 2520
Epoch Orbit582
Epoch Day75.92542925
Epoch Year2019
RAAN158.5916
Inclination0.0165
Eccentricity0.0002453
Argument of Perigee354.1499
Mean Anonmoly39.637
Mean Motion1.00273988
Decay Rate1.19E-06
L11 42907U 17046A 19075.92542925 .00000119 00000-0 00000+0 0 9990
L22 42907 0.0165 158.5916 0002453 354.1499 39.6370 1.00273988 5821

Live tracking and technical data element details for COSMOS 2520 (NORAD 42907). COSMOS 2520 can be tracked NOW for your location showing map with azimuth and elevation plus other details from your city location.

Track the satellite on the map from your city or location and see movement details for azimuth, elevation, latitude, longitude, range, height, and movement on the map or in text.







IsCatalogInMostPopularTable: catalog: 42907, numindb: 204
Update: records affected: 1



GetName: 42907 COSMOS 2520

Hit Count: updated at: Wed, 20 Mar 2019 05:47:07 GMT